[[{"header":{"parameterUnit":"m.s-1","parameterCategory":2,"la1":30.2991,"la2":30.254,"lo1":-89.0895,"lo2":-89.0444,"dy":0.0017,"dx":0.0017,"nx":28,"ny":28,"refTime":"2024-06-04T03:00:00:Z","depth":"0","parameterNumber":2,"parameterNumberName":"U-component_of_CURRENTS"},"data":[0,0,0,0,0,0,0,0,0,0,0,0,0,0,0,0,0,0,0,0,0,0,0,0,0,0,0,0,0,0,0,0,0,0,0,0,0,0,0,0,0,0,0,0,0,0,0,0,0,0,0,0,0,0,0,0,0,0,-0.2244,-0.2245,0,-0.2282,-0.2282,-0.2283,-0.2269,-0.2268,-0.2268,-0.2267,-0.2239,-0.2239,-0.2239,0,0,0,0,0,0,0,0,0,0,0,0,0,-0.2158,-0.2159,-0.2244,-0.2245,-0.2246,-0.2282,-0.2282,-0.2283,-0.2269,-0.2268,-0.2267,-0.2267,-0.2239,-0.2239,-0.2239,0,0,0,0,0,0,0,0,0,0,0,0,0,-0.2193,-0.216,-0.2244,-0.2245,-0.2246,-0.2282,-0.2282,-0.2283,-0.2269,-0.2268,-0.2267,-0.2266,-0.224,-0.2239,-0.2239,-0.2256,0,0,-0.2238,-0.2238,0,0,0,0,0,0,0,0,-0.2191,-0.2196,-0.2244,-0.2245,-0.2246,-0.2272,-0.2242,-0.2271,-0.2269,-0.2258,-0.2267,-0.2266,-0.2247,-0.2246,-0.2252,-0.2255,-0.2254,-0.2238,-0.2238,-0.2238,-0.2238,0,0,0,0,0,0,0,-0.2189,-0.2194,-0.2257,-0.2245,-0.2246,-0.2243,-0.2247,-0.2248,-0.2254,-0.2259,-0.2258,-0.2267,-0.2246,-0.2253,-0.2251,-0.2253,-0.2238,-0.2238,-0.2238,-0.2238,-0.2276,-0.2277,0,0,0,0,0,0,-0.2191,-0.2192,-0.2255,-0.2258,-0.2219,-0.2246,-0.225,-0.2263,-0.2255,-0.2254,-0.2268,-0.2266,-0.2253,-0.2252,-0.225,-0.2272,-0.2238,-0.2238,-0.2238,-0.2274,-0.2276,-0.2277,0,0,0,0,0,0,-0.2189,-0.2196,-0.2254,-0.2228,-0.2235,-0.2248,-0.2263,-0.2264,-0.2267,-0.2263,-0.226,-0.2269,-0.2253,-0.2251,-0.2256,-0.2271,-0.2238,-0.2237,-0.2273,-0.2275,-0.2276,-0.2314,0,0,0,0,0,0,-0.2186,-0.2195,-0.22,-0.2228,-0.2237,-0.2278,-0.2264,-0.2265,-0.2275,-0.2273,-0.2264,-0.226,-0.2252,-0.2256,-0.2255,-0.227,-0.2237,-0.2272,-0.2274,-0.2276,-0.2311,-0.2317,-0.2322,0,0,0,0,0,-0.2183,-0.2196,-0.2201,-0.2208,-0.2245,-0.2279,-0.2283,-0.2287,-0.2276,-0.2284,-0.2278,-0.2261,-0.2269,-0.2257,-0.2256,-0.227,-0.2271,-0.2273,-0.2276,-0.2309,-0.2316,-0.2322,0,0,0,0,0,0,-0.2158,-0.2197,-0.2202,-0.2225,-0.2252,-0.2278,-0.2284,-0.2289,-0.2293,-0.2286,-0.2274,-0.2271,-0.2283,-0.2274,-0.2261,-0.2289,-0.2268,-0.227,-0.2294,-0.23,-0.2305,-0.23,-0.2237,0,0,0,0,0,-0.2158,-0.2176,-0.2214,-0.2229,-0.2244,-0.2263,-0.2275,-0.2284,-0.2295,-0.2295,-0.229,-0.2288,-0.2296,-0.2294,-0.2298,-0.2311,-0.2293,-0.2321,-0.2326,-0.2331,-0.2327,-0.2323,-0.2327,-0.2286,-0.2286,-0.2286,0,0,-0.2151,-0.2175,-0.2184,-0.2225,-0.2241,-0.2274,-0.2267,-0.2291,-0.2313,-0.2291,-0.2307,-0.2305,-0.2304,-0.2322,-0.2326,-0.2313,-0.2334,-0.2334,-0.2337,-0.2332,-0.2326,-0.233,-0.2334,-0.2287,-0.2287,-0.2287,0,0,-0.2155,-0.217,-0.2191,-0.2219,-0.2256,-0.2275,-0.2283,-0.2314,-0.2319,-0.2342,-0.2334,-0.234,-0.2348,-0.2354,-0.2357,-0.2393,-0.2363,-0.2396,-0.2414,-0.2411,-0.2414,-0.2416,-0.2396,-0.2396,-0.2396,-0.2396,-0.2396,0,-0.2143,-0.2177,-0.2201,-0.2235,-0.2256,-0.2277,-0.2308,-0.2328,-0.2354,-0.236,-0.2349,-0.2366,-0.2365,-0.2388,-0.2403,-0.2403,-0.2389,-0.2389,-0.2416,-0.2418,-0.242,-0.2398,-0.2398,-0.2398,-0.2398,-0.2398,-0.2398,0,-0.2171,-0.2197,-0.2212,-0.2261,-0.2291,-0.2317,-0.2358,-0.2377,-0.2382,-0.2397,-0.2414,-0.2414,-0.2419,-0.2429,-0.2427,-0.2446,-0.2427,-0.2423,-0.2397,-0.2426,-0.2402,-0.2401,-0.2401,-0.2401,-0.24,-0.24,0,0,-0.2131,-0.2215,-0.2215,-0.2243,-0.2304,-0.233,-0.2373,-0.2412,-0.243,-0.2445,-0.2461,-0.2479,-0.2467,-0.2471,-0.2469,-0.2469,-0.2473,-0.2453,-0.2452,-0.2426,-0.2451,-0.2383,-0.2375,-0.2472,-0.2472,-0.2472,-0.2427,0,-0.2135,-0.2198,-0.2241,-0.2291,-0.2325,-0.2366,-0.2405,-0.2444,-0.2463,-0.2484,-0.2487,-0.2499,-0.2489,-0.2488,-0.249,-0.2483,-0.2472,-0.2484,-0.2432,-0.243,-0.2361,-0.2373,-0.228,-0.2227,-0.2426,-0.2426,-0.2426,0,-0.2135,-0.218,-0.2235,-0.2308,-0.2325,-0.236,-0.2412,-0.245,-0.2493,-0.2506,-0.2517,-0.252,-0.253,-0.2513,-0.2499,-0.2506,-0.2478,-0.2465,-0.2463,-0.2383,-0.2361,-0.2232,-0.2218,-0.2206,-0.2424,-0.2424,-0.2424,0,-0.2082,-0.2165,-0.2205,-0.2232,-0.2325,-0.2349,-0.2388,-0.2444,-0.2469,-0.251,-0.2521,-0.2538,-0.2532,-0.2519,-0.2491,-0.2496,-0.2464,-0.2466,-0.2372,-0.2367,-0.2268,-0.2253,-0.2227,-0.2441,-0.2441,-0.2441,-0.2441,0,-0.206,-0.2084,-0.2182,-0.2203,-0.2241,-0.2319,-0.2351,-0.2395,-0.2452,-0.2473,-0.2515,-0.2522,-0.2532,-0.2517,-0.2495,-0.2424,-0.2461,-0.2369,-0.2351,-0.2278,-0.2266,-0.2234,-0.2256,-0.2439,-0.244,-0.244,-0.244,0,-0.1984,-0.2054,-0.2097,-0.2192,-0.2217,-0.2237,-0.2316,-0.2341,-0.2406,-0.2434,-0.2445,-0.2501,-0.2481,-0.2474,-0.2448,-0.2408,-0.2322,-0.2325,-0.223,-0.2202,-0.2099,-0.2127,-0.2078,-0.2019,-0.2217,-0.2215,-0.2213,0,-0.1951,-0.1969,-0.2059,-0.2079,-0.2115,-0.2163,-0.2196,-0.2292,-0.2322,-0.2409,-0.2413,-0.2427,-0.241,-0.2353,-0.2299,-0.2233,-0.2232,-0.2101,-0.2094,-0.2073,-0.2092,-0.212,-0.2076,-0.1979,-0.1975,-0.1972,-0.197,0,-0.1867,-0.1898,-0.1932,-0.1984,-0.2022,-0.2061,-0.2117,-0.2143,-0.225,-0.228,-0.2316,-0.2318,-0.2284,-0.2192,-0.2114,-0.2057,-0.2055,-0.204,-0.2046,-0.1922,-0.1923,-0.1863,-0.2029,-0.1945,-0.1948,-0.195,-0.1951,-0.1952,-0.1777,-0.178,-0.1831,-0.1865,-0.191,-0.1937,-0.1912,-0.1999,-0.203,-0.2054,-0.2153,-0.212,-0.2099,-0.1982,-0.1933,-0.1814,-0.1868,-0.1753,-0.1793,-0.1827,-0.1756,-0.1858,-0.174,-0.1741,-0.1742,-0.1743,-0.1744,0,-0.1657,-0.168,-0.171,-0.175,-0.1743,-0.1802,-0.1833,-0.178,-0.1767,-0.1865,-0.187,-0.1869,-0.1786,-0.1772,-0.1689,-0.1608,-0.1573,-0.156,-0.1587,-0.1555,-0.1656,-0.163,-0.1448,-0.1448,-0.1448,-0.1448,-0.1448,-0.1448,-0.1595,-0.1578,-0.1605,-0.1563,-0.1576,-0.1474,-0.1443,-0.1411,-0.1428,-0.142,-0.1464,-0.1536,-0.1585,-0.172,-0.162,-0.1529,-0.1501,-0.1444,-0.1476,-0.1569,-0.1591,-0.1612,-0.1593,-0.1406,-0.1406,-0.1312,-0.1311,-0.1311]},{"header":{"parameterUnit":"m.s-1","parameterCategory":2,"la1":30.2991,"la2":30.254,"lo1":-89.0895,"lo2":-89.0444,"dy":0.0017,"dx":0.0017,"nx":28,"ny":28,"refTime":"2024-06-04T03:00:00:Z","depth":"0","parameterNumber":3,"parameterNumberName":"V-component_of_CURRENTS"},"data":[0,0,0,0,0,0,0,0,0,0,0,0,0,0,0,0,0,0,0,0,0,0,0,0,0,0,0,0,0,0,0,0,0,0,0,0,0,0,0,0,0,0,0,0,0,0,0,0,0,0,0,0,0,0,0,0,0,0,-0.0032,-0.0031,0,0.0038,0.0039,0.004,0.0097,0.0098,0.0098,0.0099,0.02,0.0203,0.0205,0,0,0,0,0,0,0,0,0,0,0,0,0,-0.0072,-0.0072,-0.0032,-0.0031,-0.0031,0.0038,0.0039,0.004,0.0097,0.0098,0.0098,0.0099,0.02,0.0202,0.0205,0,0,0,0,0,0,0,0,0,0,0,0,0,-0.0032,-0.0072,-0.0032,0.0005,0.0009,0.0038,0.0039,0.0041,0.0097,0.0098,0.0099,0.0099,0.0199,0.0202,0.0206,0.0214,0,0,0.0216,0.0218,0,0,0,0,0,0,0,0,-0.0035,-0.0031,-0.0001,0.0002,0.0007,0.0058,0.0062,0.01,0.0097,0.0065,0.0099,0.0099,0.0154,0.0161,0.0175,0.0218,0.0223,0.0216,0.0219,0.022,0.0221,0,0,0,0,0,0,0,-0.0038,-0.0033,-0.0003,-0.0001,0.0004,0.0033,0.004,0.007,0.0107,0.0068,0.0072,0.0077,0.0157,0.0172,0.0178,0.0224,0.0216,0.0219,0.0222,0.0223,0.0288,0.0287,0,0,0,0,0,0,-0.0053,-0.0036,-0.0005,-0.0001,-0.0015,0.0033,0.004,0.0042,0.0106,0.0116,0.0077,0.008,0.0165,0.0174,0.0182,0.0197,0.022,0.0223,0.0225,0.0288,0.0288,0.0287,0,0,0,0,0,0,-0.0054,-0.0051,-0.0008,-0.0018,-0.001,0.0033,0.0035,0.0043,0.0059,0.0112,0.0123,0.0083,0.0166,0.0177,0.0208,0.0201,0.0225,0.0228,0.0288,0.0288,0.0287,0.0225,0,0,0,0,0,0,-0.0055,-0.0052,-0.0057,-0.0019,-0.001,-0.0,0.0035,0.0044,0.006,0.0065,0.0121,0.0131,0.0168,0.0202,0.0211,0.0206,0.0231,0.0289,0.0288,0.0287,0.0228,0.0223,0.0218,0,0,0,0,0,-0.0057,-0.0073,-0.0058,-0.0054,-0.0019,-0.0001,0.0005,0.004,0.0059,0.0058,0.0101,0.0129,0.0204,0.0205,0.0215,0.0211,0.0289,0.0288,0.0288,0.023,0.0224,0.0219,0,0,0,0,0,0,-0.0095,-0.0067,-0.0051,-0.0057,-0.0034,0.0008,0.0008,0.0034,0.0066,0.0073,0.0127,0.014,0.0162,0.0194,0.0193,0.0228,0.0251,0.0252,0.0203,0.0198,0.0193,0.0186,0.0233,0,0,0,0,0,-0.0106,-0.011,-0.0076,-0.0082,-0.0074,-0.0034,-0.0022,0.0001,0.0036,0.0051,0.009,0.0132,0.0167,0.0188,0.0219,0.0239,0.0283,0.0243,0.0238,0.0234,0.0235,0.0296,0.0297,0.0285,0.0285,0.0285,0,0,-0.0122,-0.0108,-0.011,-0.009,-0.0069,-0.0067,-0.0025,-0.0015,-0.0007,0.0056,0.0075,0.0115,0.0167,0.0189,0.0203,0.0217,0.0259,0.0233,0.0229,0.0233,0.0295,0.0297,0.0298,0.0284,0.0284,0.0284,0,0,-0.0163,-0.0145,-0.0163,-0.0148,-0.0125,-0.0097,-0.0098,-0.006,-0.0037,-0.0014,0.0034,0.0071,0.0117,0.016,0.0186,0.0175,0.0229,0.018,0.0156,0.0214,0.0216,0.0218,0.0268,0.0275,0.0181,0.0181,0.0181,0,-0.0186,-0.0199,-0.0166,-0.0178,-0.0169,-0.0115,-0.0128,-0.0099,-0.0055,-0.0034,-0.0019,0.0065,0.0106,0.0151,0.0146,0.0165,0.0204,0.0172,0.0209,0.0212,0.0215,0.0266,0.0275,0.0178,0.0178,0.0179,0.0179,0,-0.0236,-0.0246,-0.0256,-0.0249,-0.0234,-0.0238,-0.0193,-0.0174,-0.0138,-0.0099,-0.0053,0.0008,0.0063,0.0077,0.011,0.015,0.0172,0.0192,0.0222,0.0212,0.0267,0.0277,0.0174,0.0175,0.0176,0.0176,0,0,-0.0289,-0.0293,-0.0295,-0.0305,-0.0271,-0.0267,-0.0248,-0.0212,-0.0193,-0.0143,-0.011,-0.0048,-0.0002,0.0031,0.008,0.0131,0.0183,0.0165,0.0169,0.0212,0.0309,0.0354,0.037,0.0211,0.0212,0.0213,0.0335,0,-0.0339,-0.0384,-0.036,-0.0388,-0.0404,-0.0346,-0.033,-0.0285,-0.0234,-0.0189,-0.0109,-0.0063,-0.0023,0.0005,0.0062,0.0157,0.0208,0.0148,0.0314,0.0319,0.0359,0.0383,0.0414,0.0528,0.0346,0.0347,0.0349,0,-0.0395,-0.0416,-0.0458,-0.0455,-0.0454,-0.0452,-0.0406,-0.0387,-0.03,-0.0258,-0.0187,-0.0118,-0.003,-0.0001,0.0159,0.012,0.0205,0.0276,0.0283,0.0356,0.0384,0.051,0.0554,0.0699,0.0365,0.0364,0.0362,0,-0.0453,-0.0481,-0.0516,-0.0517,-0.0503,-0.0499,-0.0479,-0.0407,-0.0384,-0.0297,-0.0262,-0.0147,-0.0083,0.0039,0.0192,0.0178,0.0371,0.0374,0.0494,0.0498,0.0574,0.0582,0.0778,0.0481,0.0481,0.0481,0.048,0,-0.0516,-0.0544,-0.0549,-0.0571,-0.0598,-0.0558,-0.0556,-0.0517,-0.0447,-0.0411,-0.0303,-0.024,-0.007,0.0064,0.0191,0.0386,0.0378,0.0502,0.054,0.0552,0.0556,0.0726,0.0775,0.0485,0.0484,0.0483,0.0483,0,-0.0577,-0.0581,-0.0625,-0.0629,-0.0632,-0.0648,-0.0622,-0.061,-0.0537,-0.0484,-0.0458,-0.03,-0.0116,0.0062,0.0277,0.039,0.0664,0.0628,0.0627,0.0663,0.0899,0.0942,0.1168,0.1264,0.0781,0.0783,0.0785,0,-0.0615,-0.0645,-0.0679,-0.0705,-0.0711,-0.0724,-0.0725,-0.0666,-0.0642,-0.0511,-0.0485,-0.0302,-0.0144,0.0192,0.0425,0.0673,0.0765,0.0825,0.0805,0.0934,0.1011,0.1034,0.11,0.088,0.0882,0.0884,0.0886,0,-0.0679,-0.0686,-0.0722,-0.078,-0.0801,-0.0817,-0.0809,-0.0799,-0.0709,-0.0638,-0.0491,-0.0352,-0.0016,0.0302,0.0613,0.0749,0.0942,0.087,0.1017,0.1122,0.1149,0.1252,0.0767,0.0903,0.0901,0.09,0.0899,0.0898,-0.0715,-0.0755,-0.0796,-0.0845,-0.0871,-0.0879,-0.0848,-0.082,-0.0758,-0.0595,-0.05,-0.0239,0.0188,0.065,0.0823,0.1161,0.1112,0.124,0.1286,0.1302,0.1389,0.0936,0.1103,0.1102,0.1102,0.1101,0.1101,0,-0.0758,-0.0796,-0.0855,-0.0888,-0.0892,-0.0896,-0.0869,-0.079,-0.0679,-0.0553,-0.038,0.0086,0.0521,0.0911,0.1377,0.1563,0.1607,0.1639,0.1687,0.1739,0.1361,0.136,0.1574,0.1574,0.1574,0.1574,0.1573,0.1573,-0.0779,-0.0847,-0.0876,-0.0887,-0.088,-0.0816,-0.0766,-0.0664,-0.0543,-0.0266,-0.0006,0.0199,0.0702,0.1462,0.1902,0.1933,0.2104,0.2078,0.2179,0.1915,0.188,0.1848,0.1862,0.2177,0.2178,0.2546,0.2549,0.2552]}],[{"header":{"parameterUnit":"m.s-1","parameterCategory":2,"la1":30.2991,"la2":30.254,"lo1":-89.0895,"lo2":-89.0444,"dy":0.0017,"dx":0.0017,"nx":28,"ny":28,"refTime":"2024-06-04T03:00:00:Z","depth":"2","parameterNumber":2,"parameterNumberName":"U-component_of_CURRENTS"},"data":[0,0,0,0,0,0,0,0,0,0,0,0,0,0,0,0,0,0,0,0,0,0,0,0,0,0,0,0,0,0,0,0,0,0,0,0,0,0,0,0,0,0,0,0,0,0,0,0,0,0,0,0,0,0,0,0,0,0,-0.2043,-0.2044,0,-0.2084,-0.2084,-0.2084,-0.2077,-0.2076,-0.2076,-0.2075,-0.2061,-0.2061,-0.2061,0,0,0,0,0,0,0,0,0,0,0,0,0,-0.1955,-0.1957,-0.2043,-0.2044,-0.2045,-0.2084,-0.2084,-0.2084,-0.2077,-0.2076,-0.2076,-0.2075,-0.2061,-0.2061,-0.2061,0,0,0,0,0,0,0,0,0,0,0,0,0,-0.1992,-0.1957,-0.2043,-0.2047,-0.2048,-0.2084,-0.2084,-0.2084,-0.2077,-0.2076,-0.2076,-0.2075,-0.2061,-0.2061,-0.2061,-0.2076,0,0,-0.2061,-0.2061,0,0,0,0,0,0,0,0,-0.199,-0.1995,-0.2046,-0.2047,-0.2048,-0.2077,-0.2048,-0.208,-0.2077,-0.2064,-0.2075,-0.2075,-0.2063,-0.2063,-0.207,-0.2076,-0.2075,-0.2061,-0.2061,-0.2061,-0.2061,0,0,0,0,0,0,0,-0.1987,-0.1993,-0.2057,-0.2047,-0.2048,-0.2046,-0.205,-0.2054,-0.2064,-0.2065,-0.2065,-0.2074,-0.2063,-0.207,-0.2069,-0.2075,-0.2061,-0.2061,-0.2061,-0.2061,-0.2106,-0.2107,0,0,0,0,0,0,-0.1989,-0.1991,-0.2055,-0.2058,-0.202,-0.2049,-0.2053,-0.2066,-0.2065,-0.2066,-0.2074,-0.2073,-0.207,-0.2069,-0.2068,-0.2096,-0.2061,-0.2061,-0.2062,-0.2105,-0.2106,-0.2108,0,0,0,0,0,0,-0.1987,-0.1994,-0.2054,-0.2027,-0.2035,-0.2051,-0.2066,-0.2068,-0.2074,-0.2074,-0.2072,-0.2079,-0.2069,-0.2068,-0.2079,-0.2095,-0.2062,-0.2062,-0.2104,-0.2105,-0.2107,-0.2146,0,0,0,0,0,0,-0.1984,-0.1993,-0.2001,-0.2027,-0.2036,-0.208,-0.2067,-0.2069,-0.2082,-0.2081,-0.2078,-0.2076,-0.2068,-0.2079,-0.2079,-0.2095,-0.2062,-0.2102,-0.2105,-0.2107,-0.2143,-0.2149,-0.2153,0,0,0,0,0,-0.1981,-0.1996,-0.2001,-0.2008,-0.2047,-0.2081,-0.2085,-0.2092,-0.2083,-0.2093,-0.2091,-0.2076,-0.2092,-0.208,-0.208,-0.2096,-0.2101,-0.2104,-0.2106,-0.2141,-0.2148,-0.2153,0,0,0,0,0,0,-0.1958,-0.1997,-0.2003,-0.2028,-0.2055,-0.2081,-0.209,-0.2096,-0.2104,-0.2099,-0.2089,-0.2088,-0.2105,-0.2098,-0.2084,-0.2116,-0.2095,-0.2097,-0.2121,-0.2127,-0.2132,-0.2128,-0.2062,0,0,0,0,0,-0.1959,-0.1979,-0.2016,-0.2034,-0.2049,-0.2069,-0.2082,-0.2092,-0.2105,-0.2108,-0.2107,-0.2107,-0.2117,-0.2119,-0.2125,-0.2141,-0.2123,-0.2152,-0.2157,-0.2161,-0.2159,-0.2156,-0.216,-0.2116,-0.2116,-0.2116,0,0,-0.1954,-0.1978,-0.1989,-0.2031,-0.2048,-0.2081,-0.2074,-0.21,-0.2124,-0.2105,-0.2126,-0.2126,-0.2127,-0.2147,-0.2154,-0.2141,-0.2165,-0.2165,-0.2168,-0.2164,-0.2159,-0.2163,-0.2166,-0.2118,-0.2117,-0.2117,0,0,-0.1961,-0.1978,-0.2001,-0.2029,-0.2067,-0.2086,-0.2095,-0.2127,-0.2135,-0.2161,-0.2155,-0.2164,-0.2176,-0.2182,-0.2186,-0.2223,-0.2194,-0.2227,-0.2246,-0.2243,-0.2246,-0.2249,-0.2229,-0.223,-0.2227,-0.2227,-0.2227,0,-0.1952,-0.1987,-0.2012,-0.2047,-0.2069,-0.209,-0.2121,-0.2142,-0.2172,-0.2179,-0.2171,-0.2193,-0.2194,-0.2217,-0.2233,-0.2233,-0.222,-0.2221,-0.2248,-0.2251,-0.2253,-0.2232,-0.2232,-0.2229,-0.2229,-0.2229,-0.2228,0,-0.1983,-0.2011,-0.2027,-0.2077,-0.2107,-0.2135,-0.2174,-0.2196,-0.2204,-0.222,-0.2241,-0.2243,-0.2251,-0.226,-0.2258,-0.2279,-0.2261,-0.2256,-0.2229,-0.2259,-0.2236,-0.2235,-0.2232,-0.2232,-0.2231,-0.223,0,0,-0.1949,-0.2032,-0.2033,-0.2062,-0.2123,-0.2149,-0.2193,-0.2233,-0.2251,-0.2272,-0.229,-0.231,-0.23,-0.2305,-0.2302,-0.2304,-0.2309,-0.2288,-0.2287,-0.2262,-0.2289,-0.2221,-0.2213,-0.2307,-0.2308,-0.2308,-0.2265,0,-0.1957,-0.2021,-0.2062,-0.2114,-0.2148,-0.2188,-0.2227,-0.2267,-0.2288,-0.2312,-0.2316,-0.2331,-0.2322,-0.2323,-0.2325,-0.2317,-0.2309,-0.232,-0.2269,-0.2267,-0.2198,-0.2211,-0.2057,-0.2001,-0.2264,-0.2264,-0.2264,0,-0.1962,-0.2006,-0.2063,-0.2134,-0.2151,-0.2187,-0.2239,-0.2277,-0.2321,-0.2336,-0.2349,-0.2353,-0.2364,-0.2349,-0.2335,-0.2341,-0.2317,-0.2304,-0.2301,-0.2222,-0.2198,-0.2016,-0.199,-0.2262,-0.2262,-0.2262,-0.2262,0,-0.1915,-0.1997,-0.2038,-0.2065,-0.2155,-0.218,-0.2218,-0.2274,-0.2299,-0.2342,-0.2355,-0.2371,-0.2368,-0.2355,-0.2328,-0.2332,-0.2302,-0.2302,-0.2214,-0.2208,-0.2057,-0.2038,-0.2283,-0.2283,-0.2283,-0.2283,-0.2283,0,-0.1899,-0.1926,-0.2019,-0.2041,-0.208,-0.2154,-0.2188,-0.2231,-0.2287,-0.2308,-0.2351,-0.2358,-0.2369,-0.2355,-0.2332,-0.2263,-0.2299,-0.2211,-0.2193,-0.2067,-0.205,-0.2263,-0.2261,-0.2281,-0.2282,-0.2282,-0.2282,0,-0.1833,-0.19,-0.1945,-0.2035,-0.206,-0.2082,-0.2158,-0.2183,-0.2246,-0.2274,-0.2287,-0.234,-0.2318,-0.2313,-0.2287,-0.2249,-0.2206,-0.2169,-0.2014,-0.1978,-0.2112,-0.2113,-0.2067,-0.2064,-0.2062,-0.206,-0.2058,0,-0.1805,-0.1825,-0.1912,-0.1931,-0.1968,-0.2015,-0.2048,-0.2139,-0.2167,-0.225,-0.2253,-0.2267,-0.2245,-0.2188,-0.2132,-0.2065,-0.2128,-0.1884,-0.1867,-0.2104,-0.2091,-0.2095,-0.21,-0.1681,-0.1676,-0.1672,-0.1669,0,-0.173,-0.1761,-0.1795,-0.1843,-0.1882,-0.192,-0.1973,-0.1997,-0.2097,-0.2123,-0.215,-0.2146,-0.2109,-0.1977,-0.1904,-0.1845,-0.1887,-0.1805,-0.2083,-0.1766,-0.1737,-0.1726,-0.1743,-0.1636,-0.1639,-0.1642,-0.1643,-0.1645,-0.165,-0.1653,-0.17,-0.1728,-0.1775,-0.18,-0.1775,-0.1853,-0.1875,-0.1885,-0.1978,-0.1911,-0.1908,-0.171,-0.1628,-0.1556,-0.1679,-0.1599,-0.1611,-0.1627,-0.1597,-0.1567,-0.1426,-0.1428,-0.143,-0.1432,-0.1433,0,-0.1539,-0.1556,-0.1581,-0.1607,-0.1587,-0.1661,-0.1696,-0.1649,-0.1623,-0.1684,-0.1674,-0.1515,-0.1437,-0.1429,-0.1279,-0.1254,-0.1244,-0.119,-0.1184,-0.1217,-0.1247,-0.1199,-0.0921,-0.092,-0.0918,-0.0917,0,0,-0.1481,-0.1458,-0.1473,-0.14,-0.1408,-0.1338,-0.1317,-0.1297,-0.1302,-0.1253,-0.1228,-0.134,-0.1383,-0.1158,-0.1106,-0.099,-0.1087,-0.0933,-0.1342,-0.1367,-0.1394,-0.1478,-0.1441,0,0,0,0,0]},{"header":{"parameterUnit":"m.s-1","parameterCategory":2,"la1":30.2991,"la2":30.254,"lo1":-89.0895,"lo2":-89.0444,"dy":0.0017,"dx":0.0017,"nx":28,"ny":28,"refTime":"2024-06-04T03:00:00:Z","depth":"2","parameterNumber":3,"parameterNumberName":"V-component_of_CURRENTS"},"data":[0,0,0,0,0,0,0,0,0,0,0,0,0,0,0,0,0,0,0,0,0,0,0,0,0,0,0,0,0,0,0,0,0,0,0,0,0,0,0,0,0,0,0,0,0,0,0,0,0,0,0,0,0,0,0,0,0,0,-0.0135,-0.0134,0,-0.0065,-0.0064,-0.0063,-0.0011,-0.0011,-0.001,-0.001,0.009,0.0092,0.0094,0,0,0,0,0,0,0,0,0,0,0,0,0,-0.018,-0.0179,-0.0135,-0.0134,-0.0133,-0.0065,-0.0064,-0.0063,-0.0011,-0.0011,-0.001,-0.001,0.0089,0.0092,0.0095,0,0,0,0,0,0,0,0,0,0,0,0,0,-0.0139,-0.0179,-0.0135,-0.01,-0.0097,-0.0065,-0.0064,-0.0063,-0.0011,-0.0011,-0.001,-0.001,0.0088,0.0092,0.0095,0.0108,0,0,0.0106,0.0107,0,0,0,0,0,0,0,0,-0.0141,-0.0137,-0.0106,-0.0103,-0.0099,-0.0048,-0.0043,-0.0005,-0.0011,-0.0042,-0.001,-0.0009,0.0045,0.0052,0.0066,0.0112,0.0116,0.0106,0.0108,0.011,0.0111,0,0,0,0,0,0,0,-0.0144,-0.0139,-0.0105,-0.0106,-0.0101,-0.0074,-0.0067,-0.0035,-0.0,-0.0039,-0.0036,-0.0031,0.0048,0.0063,0.0069,0.0118,0.0106,0.0109,0.0111,0.0113,0.0188,0.0188,0,0,0,0,0,0,-0.0159,-0.0142,-0.0108,-0.0104,-0.0121,-0.0074,-0.0067,-0.0063,-0.0001,0.0008,-0.0031,-0.0028,0.0056,0.0065,0.0073,0.0094,0.011,0.0113,0.0115,0.0188,0.0188,0.0188,0,0,0,0,0,0,-0.016,-0.0156,-0.0111,-0.0122,-0.0115,-0.0074,-0.007,-0.0062,-0.0047,0.0005,0.0015,-0.0024,0.0057,0.0068,0.0102,0.0098,0.0115,0.0118,0.0188,0.0188,0.0188,0.0134,0,0,0,0,0,0,-0.0162,-0.0157,-0.0161,-0.0124,-0.0115,-0.01,-0.007,-0.0061,-0.0045,-0.0041,0.0014,0.0024,0.0058,0.0096,0.0105,0.0103,0.0121,0.0188,0.0188,0.0188,0.0136,0.0132,0.0128,0,0,0,0,0,-0.0163,-0.0175,-0.0162,-0.0158,-0.0121,-0.0101,-0.0094,-0.0061,-0.0045,-0.0044,-0.0003,0.0022,0.0101,0.0099,0.011,0.0108,0.0188,0.0188,0.0188,0.0137,0.0133,0.0129,0,0,0,0,0,0,-0.0198,-0.017,-0.0155,-0.0157,-0.0134,-0.0093,-0.0091,-0.0067,-0.0033,-0.0028,0.0023,0.0036,0.0062,0.0093,0.0089,0.0129,0.0148,0.0149,0.0106,0.0102,0.0098,0.0088,0.0124,0,0,0,0,0,-0.0208,-0.0209,-0.0176,-0.0178,-0.017,-0.013,-0.0118,-0.0096,-0.0061,-0.0046,-0.0008,0.0034,0.0069,0.009,0.0123,0.0147,0.0183,0.0152,0.0149,0.0145,0.0145,0.02,0.0201,0.0187,0.0187,0.0187,0,0,-0.0223,-0.0208,-0.0208,-0.0185,-0.0164,-0.0158,-0.0122,-0.0109,-0.0099,-0.0041,-0.0018,0.002,0.0071,0.0097,0.0112,0.0124,0.0167,0.0145,0.0142,0.0143,0.02,0.0201,0.0203,0.0186,0.0186,0.0187,0,0,-0.0257,-0.0239,-0.0252,-0.0236,-0.0211,-0.0184,-0.0183,-0.0145,-0.0123,-0.0096,-0.0052,-0.0014,0.0035,0.0075,0.0101,0.0098,0.0142,0.0103,0.0082,0.0135,0.0137,0.0139,0.0178,0.0184,0.0105,0.0105,0.0105,0,-0.0277,-0.0285,-0.0253,-0.0259,-0.025,-0.0199,-0.0207,-0.0178,-0.0132,-0.0113,-0.0099,-0.0014,0.0026,0.0072,0.007,0.009,0.0122,0.0094,0.0131,0.0134,0.0137,0.0176,0.0183,0.0102,0.0103,0.0103,0.0103,0,-0.0317,-0.0322,-0.0329,-0.0318,-0.0302,-0.0301,-0.0257,-0.0237,-0.0204,-0.0167,-0.0121,-0.006,-0.0007,0.0009,0.0039,0.0079,0.0095,0.0116,0.014,0.0135,0.0176,0.0185,0.0099,0.0099,0.01,0.0101,0,0,-0.0366,-0.036,-0.0362,-0.0369,-0.0333,-0.0327,-0.0305,-0.027,-0.0253,-0.02,-0.0171,-0.0106,-0.0065,-0.0033,0.0015,0.0062,0.0107,0.0092,0.0096,0.0126,0.0216,0.0247,0.026,0.0136,0.0137,0.0138,0.0233,0,-0.0408,-0.0441,-0.0416,-0.0436,-0.0448,-0.0394,-0.0376,-0.0333,-0.0286,-0.0244,-0.0167,-0.0124,-0.0082,-0.0057,-0.0002,0.0083,0.0129,0.0079,0.022,0.0224,0.025,0.0271,0.0239,0.0323,0.0242,0.0243,0.0244,0,-0.0455,-0.047,-0.0502,-0.0497,-0.0495,-0.0491,-0.045,-0.0429,-0.0349,-0.0311,-0.0244,-0.0181,-0.0098,-0.0067,0.0079,0.0045,0.0121,0.0186,0.0192,0.0247,0.0272,0.0318,0.0342,0.0259,0.0258,0.0257,0.0256,0,-0.0512,-0.0529,-0.0558,-0.0557,-0.0539,-0.0535,-0.0517,-0.045,-0.0429,-0.0351,-0.0321,-0.0213,-0.0156,-0.0042,0.0098,0.0089,0.0257,0.0266,0.0365,0.0367,0.0382,0.0384,0.0363,0.0363,0.0363,0.0363,0.0362,0,-0.0568,-0.0591,-0.059,-0.0608,-0.0634,-0.0593,-0.0593,-0.0557,-0.0494,-0.0464,-0.0362,-0.0307,-0.0147,-0.0028,0.0091,0.0262,0.0259,0.0369,0.0401,0.0362,0.0361,0.0339,0.0335,0.0366,0.0365,0.0365,0.0364,0,-0.0628,-0.0626,-0.0664,-0.0663,-0.0665,-0.0683,-0.0658,-0.065,-0.0582,-0.0539,-0.0516,-0.0372,-0.0209,-0.0044,0.015,0.0254,0.041,0.0466,0.0403,0.0427,0.0481,0.0473,0.0585,0.0587,0.0589,0.059,0.0591,0,-0.0663,-0.0688,-0.0717,-0.0743,-0.0747,-0.076,-0.0762,-0.0706,-0.0685,-0.0569,-0.0548,-0.0388,-0.0255,0.0043,0.0255,0.0476,0.0463,0.0556,0.0541,0.0487,0.0508,0.0497,0.0487,0.0534,0.0535,0.0535,0.0536,0,-0.0727,-0.0732,-0.0764,-0.0823,-0.0844,-0.0859,-0.0852,-0.0845,-0.0761,-0.0697,-0.0572,-0.0457,-0.0164,0.0089,0.0365,0.048,0.0521,0.0575,0.0555,0.0481,0.0447,0.0464,0.0454,0.054,0.054,0.054,0.0539,0.0539,-0.0767,-0.0807,-0.0849,-0.09,-0.093,-0.0941,-0.0963,-0.0902,-0.0851,-0.0724,-0.0603,-0.0394,-0.0161,0.025,0.0445,0.0615,0.0607,0.0634,0.0629,0.0625,0.06,0.0571,0.0683,0.0683,0.0683,0.0683,0.0684,0,-0.0818,-0.086,-0.0921,-0.0977,-0.103,-0.1022,-0.1014,-0.1006,-0.0932,-0.073,-0.0578,-0.031,0.0001,0.0241,0.0533,0.0699,0.0671,0.07,0.0633,0.0627,0.0622,0.0595,0.0677,0.0678,0.0679,0.0679,0,0,-0.0846,-0.092,-0.0953,-0.1053,-0.1099,-0.1151,-0.1158,-0.1086,-0.0954,-0.0764,-0.056,-0.0292,0.001,0.0215,0.0415,0.056,0.0541,0.0558,0.0543,0.0432,0.0425,0.0562,0.0512,0,0,0,0,0]}],[{"header":{"parameterUnit":"m.s-1","parameterCategory":2,"la1":30.2991,"la2":30.254,"lo1":-89.0895,"lo2":-89.0444,"dy":0.0017,"dx":0.0017,"nx":28,"ny":28,"refTime":"2024-06-04T03:00:00:Z","depth":"4","parameterNumber":2,"parameterNumberName":"U-component_of_CURRENTS"},"data":[0,0,0,0,0,0,0,0,0,0,0,0,0,0,0,0,0,0,0,0,0,0,0,0,0,0,0,0,0,0,0,0,0,0,0,0,0,0,0,0,0,0,0,0,0,0,0,0,0,0,0,0,0,0,0,0,0,0,-0.1486,-0.1487,0,-0.1558,-0.1559,-0.1559,-0.16,-0.1601,-0.1601,-0.1601,-0.1657,-0.1659,-0.166,0,0,0,0,0,0,0,0,0,0,0,0,0,-0.1375,-0.1377,-0.1486,-0.1487,-0.1489,-0.1558,-0.1559,-0.1559,-0.16,-0.1601,-0.1601,-0.1601,-0.1657,-0.1658,-0.166,0,0,0,0,0,0,0,0,0,0,0,0,0,-0.1431,-0.1378,-0.1486,-0.1519,-0.1522,-0.1558,-0.1559,-0.156,-0.16,-0.1601,-0.1601,-0.1602,-0.1657,-0.1658,-0.166,-0.1661,0,0,-0.1665,-0.1666,0,0,0,0,0,0,0,0,-0.1428,-0.1435,-0.1513,-0.1517,-0.1521,-0.1573,-0.154,-0.1593,-0.16,-0.1569,-0.1601,-0.1602,-0.1628,-0.1633,-0.1642,-0.1664,-0.1666,-0.1666,-0.1667,-0.1667,-0.1668,0,0,0,0,0,0,0,-0.1424,-0.1432,-0.1513,-0.1514,-0.1519,-0.1527,-0.1535,-0.155,-0.1593,-0.1571,-0.1575,-0.1586,-0.163,-0.164,-0.1644,-0.1667,-0.1666,-0.1667,-0.1668,-0.1669,-0.1763,-0.1765,0,0,0,0,0,0,-0.1419,-0.1428,-0.151,-0.1515,-0.1477,-0.1528,-0.1538,-0.1554,-0.1593,-0.1601,-0.1586,-0.1588,-0.1637,-0.1642,-0.1646,-0.1715,-0.1667,-0.1669,-0.167,-0.1762,-0.1764,-0.1765,0,0,0,0,0,0,-0.1417,-0.1426,-0.1508,-0.1474,-0.1486,-0.153,-0.1548,-0.1555,-0.1591,-0.1605,-0.1611,-0.1617,-0.1638,-0.1644,-0.1687,-0.1715,-0.167,-0.1671,-0.176,-0.1762,-0.1764,-0.1812,0,0,0,0,0,0,-0.1413,-0.1425,-0.1447,-0.1474,-0.1488,-0.1548,-0.1548,-0.1556,-0.1597,-0.1601,-0.1634,-0.1638,-0.1639,-0.1684,-0.1689,-0.1717,-0.1673,-0.1758,-0.1761,-0.1764,-0.1808,-0.1815,-0.1821,0,0,0,0,0,-0.1409,-0.1434,-0.1447,-0.1458,-0.1512,-0.155,-0.1557,-0.1588,-0.1598,-0.1621,-0.1645,-0.1638,-0.1704,-0.1687,-0.1692,-0.1721,-0.1757,-0.176,-0.1763,-0.1806,-0.1814,-0.1821,0,0,0,0,0,0,-0.1397,-0.1441,-0.1457,-0.1495,-0.1529,-0.1558,-0.1585,-0.1603,-0.164,-0.1651,-0.1658,-0.1664,-0.1712,-0.1712,-0.1692,-0.1757,-0.1729,-0.1734,-0.176,-0.1768,-0.1774,-0.1767,-0.1674,0,0,0,0,0,-0.1404,-0.1437,-0.1474,-0.1508,-0.1527,-0.156,-0.1584,-0.1606,-0.1637,-0.1655,-0.1678,-0.1702,-0.1725,-0.1743,-0.1763,-0.1798,-0.178,-0.1821,-0.1827,-0.1832,-0.183,-0.1832,-0.1837,-0.1776,-0.1776,-0.1776,0,0,-0.141,-0.1438,-0.1459,-0.1508,-0.1537,-0.1574,-0.1576,-0.1622,-0.1657,-0.1654,-0.1714,-0.1728,-0.174,-0.1782,-0.1803,-0.1789,-0.1841,-0.1836,-0.1841,-0.1836,-0.1835,-0.1841,-0.1846,-0.1778,-0.1778,-0.1777,0,0,-0.1429,-0.1463,-0.1495,-0.1528,-0.158,-0.1601,-0.162,-0.1666,-0.1694,-0.1746,-0.1752,-0.1784,-0.1826,-0.1837,-0.1846,-0.1899,-0.1875,-0.1912,-0.1939,-0.1941,-0.1946,-0.1949,-0.193,-0.1932,-0.1915,-0.1915,-0.1915,0,-0.1435,-0.1479,-0.1511,-0.1549,-0.158,-0.1616,-0.1655,-0.1689,-0.1745,-0.1766,-0.1775,-0.1834,-0.1849,-0.1884,-0.1907,-0.1913,-0.1903,-0.1908,-0.1948,-0.1951,-0.1954,-0.1933,-0.1934,-0.1918,-0.1917,-0.1917,-0.1917,0,-0.147,-0.1516,-0.1538,-0.1598,-0.1636,-0.1676,-0.1723,-0.1766,-0.1801,-0.1827,-0.188,-0.1899,-0.1927,-0.1944,-0.1945,-0.1979,-0.1961,-0.1955,-0.1924,-0.1963,-0.1939,-0.1939,-0.1921,-0.192,-0.192,-0.1919,0,0,-0.145,-0.1545,-0.1555,-0.159,-0.1665,-0.1695,-0.1759,-0.1814,-0.1849,-0.19,-0.1938,-0.1983,-0.1987,-0.1997,-0.2002,-0.201,-0.2027,-0.1998,-0.1997,-0.1971,-0.2018,-0.1888,-0.1875,-0.203,-0.2031,-0.2031,-0.199,0,-0.1468,-0.1542,-0.1588,-0.1659,-0.1698,-0.1752,-0.1804,-0.186,-0.1902,-0.1949,-0.1971,-0.2009,-0.2009,-0.2025,-0.2035,-0.2032,-0.2031,-0.2037,-0.199,-0.1988,-0.1862,-0.1872,-0.2033,-0.199,-0.199,-0.199,-0.199,0,-0.1477,-0.1529,-0.1603,-0.1688,-0.171,-0.1761,-0.1837,-0.1887,-0.1953,-0.1985,-0.2021,-0.2038,-0.2066,-0.2058,-0.2058,-0.2063,-0.2046,-0.2035,-0.2033,-0.1893,-0.1859,-0.1944,-0.199,-0.199,-0.199,-0.199,-0.199,0,-0.1432,-0.1532,-0.1591,-0.1623,-0.1727,-0.1771,-0.1824,-0.1898,-0.1934,-0.2004,-0.2027,-0.2063,-0.2077,-0.2073,-0.2055,-0.2062,-0.2038,-0.204,-0.1901,-0.1892,-0.2,-0.1997,-0.2032,-0.2032,-0.2032,-0.2032,-0.2032,0,-0.1414,-0.1462,-0.1581,-0.1612,-0.1675,-0.1756,-0.1817,-0.1873,-0.1945,-0.1971,-0.2036,-0.2045,-0.2083,-0.2074,-0.2058,-0.1965,-0.2035,-0.1895,-0.187,-0.2021,-0.2021,-0.2,-0.1997,-0.203,-0.2031,-0.2031,-0.2031,0,-0.1348,-0.1432,-0.15,-0.1619,-0.1657,-0.1699,-0.1802,-0.1837,-0.1916,-0.1951,-0.1972,-0.2033,-0.2011,-0.202,-0.2004,-0.1943,-0.1888,-0.184,-0.1987,-0.1973,-0.1741,-0.1742,-0.1675,-0.167,-0.1665,-0.1662,-0.1659,0,-0.1317,-0.1352,-0.1482,-0.1519,-0.1578,-0.1654,-0.1702,-0.1807,-0.1833,-0.1918,-0.1915,-0.1938,-0.1956,-0.1815,-0.1852,-0.1788,-0.1772,-0.1734,-0.1749,-0.1721,-0.1705,-0.1711,-0.1717,-0.1652,-0.1651,-0.165,-0.1649,0,-0.1246,-0.1307,-0.136,-0.1439,-0.1505,-0.156,-0.1632,-0.1642,-0.1742,-0.1833,-0.1798,-0.1777,-0.1745,-0.1718,-0.1674,-0.1639,-0.1755,-0.1689,-0.1698,-0.1712,-0.1693,-0.1683,-0.1693,-0.1634,-0.1636,-0.1638,-0.1639,0,-0.1184,-0.12,-0.1277,-0.1326,-0.1406,-0.1432,-0.1495,-0.152,-0.1558,-0.1658,-0.164,-0.1667,-0.1723,-0.1639,-0.1604,-0.1549,-0.153,-0.1488,-0.1507,-0.1523,-0.1493,-0.1448,-0.1279,0,0,0,0,0,-0.1109,-0.111,-0.1154,-0.1199,-0.1273,-0.1309,-0.1425,-0.149,-0.1593,-0.1524,-0.1575,-0.1538,-0.1482,-0.1502,-0.1409,-0.1536,-0.1539,-0.1423,-0.1503,-0.1553,-0.157,-0.1548,0,0,0,0,0,0,-0.1058,-0.1094,-0.1105,-0.1073,-0.1073,-0.1135,-0.1204,-0.1289,-0.126,-0.1369,-0.1342,-0.1421,-0.1385,-0.1479,-0.1358,-0.1364,-0.1381,-0.1449,-0.1444,-0.1544,-0.1559,-0.1572,-0.1556,0,0,0,0,0]},{"header":{"parameterUnit":"m.s-1","parameterCategory":2,"la1":30.2991,"la2":30.254,"lo1":-89.0895,"lo2":-89.0444,"dy":0.0017,"dx":0.0017,"nx":28,"ny":28,"refTime":"2024-06-04T03:00:00:Z","depth":"4","parameterNumber":3,"parameterNumberName":"V-component_of_CURRENTS"},"data":[0,0,0,0,0,0,0,0,0,0,0,0,0,0,0,0,0,0,0,0,0,0,0,0,0,0,0,0,0,0,0,0,0,0,0,0,0,0,0,0,0,0,0,0,0,0,0,0,0,0,0,0,0,0,0,0,0,0,-0.0123,-0.0122,0,-0.0069,-0.0069,-0.0068,-0.0031,-0.0031,-0.0031,-0.0031,0.0055,0.0057,0.0059,0,0,0,0,0,0,0,0,0,0,0,0,0,-0.0156,-0.0155,-0.0123,-0.0122,-0.0122,-0.0069,-0.0069,-0.0068,-0.0031,-0.0031,-0.0031,-0.003,0.0054,0.0057,0.0059,0,0,0,0,0,0,0,0,0,0,0,0,0,-0.0124,-0.0155,-0.0123,-0.0098,-0.0096,-0.007,-0.0068,-0.0067,-0.0031,-0.0031,-0.0031,-0.003,0.0053,0.0056,0.006,0.0076,0,0,0.007,0.0071,0,0,0,0,0,0,0,0,-0.0126,-0.0123,-0.0102,-0.01,-0.0097,-0.0058,-0.0049,-0.0018,-0.0031,-0.0054,-0.0031,-0.003,0.0019,0.0025,0.0037,0.008,0.0084,0.007,0.0072,0.0073,0.0074,0,0,0,0,0,0,0,-0.0128,-0.0125,-0.01,-0.0102,-0.0099,-0.0077,-0.0073,-0.0043,-0.0017,-0.0052,-0.0049,-0.0046,0.0021,0.0033,0.0039,0.0085,0.007,0.0073,0.0075,0.0076,0.0154,0.0154,0,0,0,0,0,0,-0.0141,-0.0127,-0.0102,-0.0098,-0.0113,-0.0077,-0.0072,-0.0069,-0.0018,-0.0011,-0.0046,-0.0045,0.0028,0.0035,0.0042,0.0066,0.0073,0.0076,0.0078,0.0154,0.0154,0.0154,0,0,0,0,0,0,-0.0141,-0.0139,-0.0104,-0.0113,-0.0107,-0.0077,-0.0074,-0.0068,-0.0057,-0.0015,-0.0006,-0.0041,0.0028,0.0037,0.007,0.0069,0.0078,0.0081,0.0154,0.0154,0.0154,0.0112,0,0,0,0,0,0,-0.0143,-0.0139,-0.0143,-0.0114,-0.0107,-0.0094,-0.0074,-0.0068,-0.0056,-0.0053,-0.0008,0.0001,0.0029,0.0065,0.0073,0.0074,0.0083,0.0154,0.0154,0.0154,0.0113,0.0111,0.0109,0,0,0,0,0,-0.0144,-0.0152,-0.0144,-0.0141,-0.0113,-0.0095,-0.0089,-0.0066,-0.0056,-0.0054,-0.002,-0.0001,0.0072,0.0068,0.0077,0.0079,0.0153,0.0154,0.0154,0.0114,0.0111,0.0109,0,0,0,0,0,0,-0.0169,-0.0148,-0.0139,-0.014,-0.0122,-0.0089,-0.0088,-0.007,-0.0041,-0.0038,0.0004,0.0014,0.004,0.0067,0.0061,0.0102,0.0115,0.0117,0.0082,0.0079,0.0077,0.0065,0.0086,0,0,0,0,0,-0.0177,-0.0177,-0.0152,-0.0154,-0.0148,-0.0118,-0.0109,-0.0092,-0.0063,-0.0051,-0.0019,0.0017,0.0049,0.0069,0.0098,0.0124,0.0151,0.0131,0.0129,0.0126,0.0124,0.0169,0.017,0.0155,0.0155,0.0155,0,0,-0.0188,-0.0177,-0.0177,-0.0159,-0.0144,-0.0137,-0.0112,-0.0101,-0.0091,-0.0045,-0.0024,0.0008,0.0054,0.008,0.0095,0.0103,0.0143,0.0127,0.0125,0.0123,0.0169,0.0171,0.0172,0.0155,0.0155,0.0155,0,0,-0.0212,-0.0201,-0.0209,-0.0196,-0.0177,-0.0156,-0.0155,-0.0125,-0.0108,-0.0083,-0.0048,-0.0014,0.0032,0.0067,0.0091,0.0095,0.0127,0.0101,0.0085,0.0128,0.013,0.0132,0.0158,0.0163,0.0103,0.0103,0.0103,0,-0.0228,-0.0232,-0.0209,-0.0211,-0.0205,-0.0168,-0.0172,-0.0148,-0.0109,-0.0095,-0.0083,-0.001,0.0027,0.0069,0.007,0.0089,0.0113,0.009,0.0125,0.0127,0.013,0.0157,0.0162,0.0101,0.0102,0.0102,0.0102,0,-0.0252,-0.0257,-0.0262,-0.0251,-0.0239,-0.0238,-0.0203,-0.0188,-0.0163,-0.0134,-0.0094,-0.0041,0.0003,0.0021,0.0048,0.0084,0.0093,0.0113,0.0129,0.0129,0.0157,0.0163,0.0099,0.0099,0.01,0.01,0,0,-0.0288,-0.0282,-0.0285,-0.0291,-0.0261,-0.0257,-0.0238,-0.0212,-0.0201,-0.0156,-0.0136,-0.0073,-0.0043,-0.0014,0.0028,0.0069,0.0106,0.0094,0.0097,0.0114,0.0191,0.0176,0.0182,0.0132,0.0133,0.0134,0.02,0,-0.0317,-0.0339,-0.032,-0.0337,-0.0345,-0.0306,-0.0292,-0.026,-0.0224,-0.0194,-0.013,-0.0096,-0.0055,-0.0036,0.0013,0.0085,0.0122,0.0085,0.0194,0.0197,0.018,0.0189,0.0137,0.0205,0.0206,0.0207,0.0208,0,-0.0347,-0.0359,-0.0384,-0.0385,-0.0385,-0.0384,-0.0359,-0.0342,-0.0283,-0.0254,-0.0201,-0.0149,-0.0079,-0.005,0.0073,0.0047,0.0111,0.0166,0.017,0.0176,0.0194,0.021,0.022,0.0219,0.0218,0.0218,0.0217,0,-0.039,-0.0405,-0.043,-0.0429,-0.0419,-0.0422,-0.0412,-0.0365,-0.0351,-0.0293,-0.0273,-0.0182,-0.0137,-0.004,0.0078,0.0077,0.0209,0.0224,0.0269,0.0269,0.028,0.0277,0.0303,0.0303,0.0303,0.0303,0.0303,0,-0.0425,-0.0449,-0.0457,-0.0472,-0.0502,-0.0472,-0.0483,-0.0458,-0.0414,-0.0395,-0.0311,-0.0271,-0.0132,-0.0036,0.0066,0.0187,0.0204,0.0265,0.0288,0.0259,0.0254,0.0284,0.0281,0.0305,0.0305,0.0304,0.0304,0,-0.0466,-0.0469,-0.0506,-0.0517,-0.0526,-0.0548,-0.0543,-0.0542,-0.0494,-0.0466,-0.0449,-0.0333,-0.0205,-0.0068,0.0094,0.0166,0.0285,0.0322,0.0269,0.0288,0.0315,0.0309,0.0374,0.0374,0.0375,0.0375,0.0375,0,-0.0486,-0.0509,-0.0552,-0.0584,-0.0595,-0.062,-0.0631,-0.0593,-0.0578,-0.0496,-0.048,-0.0361,-0.027,-0.0049,0.0089,0.0272,0.0298,0.0347,0.034,0.0309,0.0325,0.0318,0.0313,0.0375,0.0375,0.0375,0.0375,0,-0.0528,-0.0546,-0.0578,-0.0649,-0.0682,-0.0706,-0.0712,-0.0702,-0.064,-0.0602,-0.0489,-0.0365,-0.0225,-0.0051,0.0088,0.0222,0.031,0.0348,0.0349,0.0343,0.031,0.0324,0.0319,0.0375,0.0375,0.0375,0.0375,0,-0.0559,-0.0597,-0.0647,-0.0703,-0.0756,-0.0774,-0.0765,-0.0721,-0.069,-0.0577,-0.0543,-0.0375,-0.0271,-0.0078,0.0056,0.018,0.021,0.0242,0.0249,0.025,0.0194,0.0133,0.0163,0,0,0,0,0,-0.0584,-0.0631,-0.0697,-0.0758,-0.0812,-0.0836,-0.0812,-0.0781,-0.0714,-0.064,-0.0582,-0.0442,-0.0226,-0.0125,-0.0002,0.0037,0.0211,0.0181,0.0246,0.0377,0.0377,0.0331,0,0,0,0,0,0,-0.0603,-0.067,-0.0704,-0.0791,-0.0844,-0.0888,-0.0872,-0.082,-0.0751,-0.0667,-0.0543,-0.045,-0.0235,-0.0314,-0.002,0.002,0.0073,0.0293,0.0295,0.0377,0.0377,0.0377,0.033,0,0,0,0,0]}]]